Regional Weather Roundup
Issued by NWS

Home | Current Version | Previous Version | Graphics & Text | Print | Product List | Glossary On
Versions: 1 2 3 4 5 6 7 8 9 10 11 12 13 14 15 16 17 18 19 20 21 22 23 24 25 26 27 28 29 30 31 32 33 34 35 36 37 38 39 40 41 42 43 44 45 46 47 48 49 50
000
ASUS43 KLMK 231002
RWRKY
KENTUCKY REGIONAL WEATHER ROUNDUP
NATIONAL WEATHER SERVICE LOUISVILLE KY
600 AM EDT SAT SEP 23 2017

NOTE "FAIR" INDICATES FEW OR NO CLOUDS BELOW 12,000 FEET
WITH NO SIGNIFICANT WEATHER AND/OR OBSTRUCTIONS TO VISIBILITY.

KYZ001>023-026-027-061>063-070>075-231100-
WESTERN AND SOUTH CENTRAL KENTUCKY

CITY           SKY/WX    TMP DP  RH WIND       PRES   REMARKS
PADUCAH        CLEAR     67  65  93 CALM      30.01S FOG
HENDERSON      FOG       64  64 100 CALM      30.03S VSB 1/2
OWENSBORO      CLEAR     69  68  96 CALM      30.04R FOG
HOPKINSVILLE   NOT AVBL
BOWLING GREEN  CLEAR     67  67 100 CALM      30.03S FOG
GLASGOW        NOT AVBL
$$

KYZ024-025-028>034-038-045-046-053-231100-
NORTH CENTRAL KENTUCKY

CITY           SKY/WX    TMP DP  RH WIND       PRES   REMARKS
LOUISVILLE/SDF CLEAR     70  65  84 N3        30.05R
LOUISVILLE/LOU CLEAR     65  65 100 CALM      30.06R FOG
FORT KNOX      NOT AVBL
$$

KYZ035>037-039>044-047>052-055>060-089>105-231100-
NORTHEAST KENTUCKY

CITY           SKY/WX    TMP DP  RH WIND       PRES   REMARKS
LEXINGTON      CLEAR     64  61  90 NE7       30.08R FOG
COVINGTON      PTCLDY    67  65  93 CALM      30.08R
FRANKFORT      CLEAR     63  60  90 CALM      30.06R FOG
$$

KYZ054-064>069-076>088-106>120-231100-
SOUTHEAST KENTUCKY

CITY           SKY/WX    TMP DP  RH WIND       PRES   REMARKS
JACKSON        CLEAR     66  63  90 CALM      30.08R
LONDON         PTCLDY    61  59  93 CALM      30.07S
SOMERSET       NOT AVBL
MIDDLESBORO    FOG       63  63 100 CALM      30.10R VSB 1/2
MONTICELLO     MOSUNNY   60  60 100 VRB6      30.08S FOG
$$





USA.gov is the U.S. government's official web portal to all federal, state and local government web resources and services.